"Pseudo-MPEC" for GEO0710

Created 2024 Jul 20 5:22:04 UT using Find_Orb

Click here for an explanation of pseudo-MPECs

 
 Astrometry: 
     GEO0710*KC2024 07 10.35244 18 44 57.87 +06 17 15.6    ~7AGq 16.7 GVNEOCPU55
     GEO0710 KC2024 07 10.36262 18 44 58.53 +06 17 10.0    ~7AGq 17.5 GVNEOCPU55
     GEO0710 KC2024 07 10.37280 18 44 59.46 +06 17 03.2    ~7AGq 17.5 GVNEOCPU55

Station data:
(U55) Golden Ears Observatory, Maple Ridge  (N49.253277 W122.585440)
   Canada/BritColumbia.  Observer B. Kumar. 0.36-m f/7 Schmidt-Cassegrain +
   CCD.

Orbital elements:  GEO0710
   Perihelion 2024 May 19.97235 +/- 42.1 TT = 23:20:10 (JD 2460450.47235)
Epoch 2024 Jul 10.0 TT = JDT 2460501.5   Earth MOID: 0.0042   Ju: 0.5137
M   4.01511977 +/- 19               (J2000 ecliptic)             AutoNEOCP
n   0.07868517 +/- 0.172            Peri.  305.53376 +/- 100
a   5.39354262 +/- 7.85             Node   271.06880 +/- 60
e   0.8490648 +/- 0.257             Incl.   15.53300 +/- 4.8
P  12.52596                H 19.59  G  0.15   U 11.6  SR
q 0.81407520 +/- 0.233    Q 9.97301004 +/- 54
From 3 observations 2024 July 10 (29.3 min); mean residual 0".70
Residuals in arcseconds: 
240710 U55  .67+  .20-    240710 U55  1.3-  .40+    240710 U55  .67+  .20-    

Ephemerides (geocentric):
Date (UTC) HH   RA             Dec           delta  r     elong  mag " sig PA
---- --------  ------------   ------------  ------ ------ -----  --- --------
2024 07 20 05  18 54 46.142   +04 47 41.12  .31522 1.2989 150.1 18.7  49d  87
2024 07 20 06  18 54 47.901   +04 47 19.39  .31576 1.2994 150.1 18.7  49d  87
2024 07 20 07  18 54 49.657   +04 46 57.66  .31631 1.2999 150.1 18.8  49d  87
2024 07 20 08  18 54 51.409   +04 46 35.94  .31686 1.3004 150.1 18.8  49d  87
2024 07 20 09  18 54 53.159   +04 46 14.22  .31740 1.3009 150.1 18.8  49d  87
2024 07 20 10  18 54 54.905   +04 45 52.50  .31795 1.3013 150.1 18.8  49d  87
2024 07 20 11  18 54 56.648   +04 45 30.79  .31850 1.3018 150.1 18.8  49d  87
2024 07 20 12  18 54 58.388   +04 45 09.08  .31905 1.3023 150.1 18.8  49d  87
2024 07 20 13  18 55 00.126   +04 44 47.37  .31959 1.3028 150.1 18.8  49d  87
2024 07 20 14  18 55 01.860   +04 44 25.67  .32014 1.3033 150.0 18.8  49d  87
2024 07 20 15  18 55 03.591   +04 44 03.97  .32069 1.3038 150.0 18.8  49d  87
2024 07 20 16  18 55 05.319   +04 43 42.27  .32124 1.3043 150.0 18.8  50d  86
2024 07 20 17  18 55 07.044   +04 43 20.58  .32178 1.3048 150.0 18.8  50d  86
2024 07 20 18  18 55 08.766   +04 42 58.89  .32233 1.3052 150.0 18.8  50d  86
2024 07 20 19  18 55 10.485   +04 42 37.20  .32288 1.3057 150.0 18.8  50d  86
2024 07 20 20  18 55 12.202   +04 42 15.52  .32343 1.3062 150.0 18.8  50d  86
2024 07 20 21  18 55 13.915   +04 41 53.84  .32398 1.3067 150.0 18.8  50d  86
2024 07 20 22  18 55 15.626   +04 41 32.17  .32453 1.3072 150.0 18.8  50d  86
2024 07 20 23  18 55 17.334   +04 41 10.49  .32508 1.3077 150.0 18.8  50d  86
2024 07 21 00  18 55 19.039   +04 40 48.83  .32563 1.3082 150.0 18.8  50d  86
2024 07 21 01  18 55 20.741   +04 40 27.16  .32618 1.3087 150.0 18.8  50d  86
2024 07 21 02  18 55 22.441   +04 40 05.50  .32673 1.3092 150.0 18.8  50d  86
2024 07 21 03  18 55 24.137   +04 39 43.84  .32728 1.3096 150.0 18.8  51d  86
2024 07 21 04  18 55 25.831   +04 39 22.18  .32783 1.3101 150.0 18.8  51d  86
2024 07 21 05  18 55 27.523   +04 39 00.53  .32838 1.3106 149.9 18.8  51d  86
2024 07 21 06  18 55 29.211   +04 38 38.88  .32893 1.3111 149.9 18.9  51d  86
2024 07 21 07  18 55 30.897   +04 38 17.23  .32948 1.3116 149.9 18.9  51d  86
2024 07 21 08  18 55 32.580   +04 37 55.58  .33003 1.3121 149.9 18.9  51d  86
2024 07 21 09  18 55 34.261   +04 37 33.94  .33058 1.3126 149.9 18.9  51d  86
2024 07 21 10  18 55 35.939   +04 37 12.30  .33113 1.3131 149.9 18.9  51d  86
2024 07 21 11  18 55 37.615   +04 36 50.67  .33168 1.3135 149.9 18.9  51d  86
2024 07 21 12  18 55 39.288   +04 36 29.03  .33223 1.3140 149.9 18.9  51d  86
2024 07 21 13  18 55 40.958   +04 36 07.40  .33278 1.3145 149.9 18.9  51d  86
2024 07 21 14  18 55 42.626   +04 35 45.78  .33334 1.3150 149.9 18.9  51d  86
2024 07 21 15  18 55 44.291   +04 35 24.15  .33389 1.3155 149.9 18.9  52d  86
2024 07 21 16  18 55 45.954   +04 35 02.53  .33444 1.3160 149.9 18.9  52d  86
2024 07 21 17  18 55 47.614   +04 34 40.91  .33499 1.3165 149.9 18.9  52d  86
2024 07 21 18  18 55 49.272   +04 34 19.29  .33554 1.3170 149.8 18.9  52d  86
2024 07 21 19  18 55 50.927   +04 33 57.68  .33610 1.3175 149.8 18.9  52d  86
2024 07 21 20  18 55 52.580   +04 33 36.07  .33665 1.3179 149.8 18.9  52d  86
2024 07 21 21  18 55 54.231   +04 33 14.46  .33720 1.3184 149.8 18.9  52d  86
2024 07 21 22  18 55 55.879   +04 32 52.86  .33775 1.3189 149.8 18.9  52d  86
2024 07 21 23  18 55 57.525   +04 32 31.25  .33831 1.3194 149.8 18.9  52d  86
2024 07 22 00  18 55 59.168   +04 32 09.65  .33886 1.3199 149.8 18.9  52d  86
2024 07 22 01  18 56 00.809   +04 31 48.05  .33941 1.3204 149.8 18.9  52d  86
2024 07 22 02  18 56 02.448   +04 31 26.46  .33997 1.3209 149.8 18.9  52d  86
2024 07 22 03  18 56 04.085   +04 31 04.87  .34052 1.3214 149.8 18.9  52d  86
2024 07 22 04  18 56 05.719   +04 30 43.28  .34108 1.3219 149.8 18.9  52d  86